Weather History for KDYB - January, 2014

Change the Weather History Date:

Tuesday, January 21, 2014

  Actual Average (KCHS) Record (KCHS)
Temperature  
Mean Temperature 50 °F 48 °F  
Max Temperature 66 °F 59 °F 80 °F (1954)
Min Temperature 35 °F 38 °F 6 °F (1985)
Degree Days  
Heating Degree Days 14 17  
Month to date heating degree days 357  
Since 1 July heating degree days 1095  
Cooling Degree Days 0 0  
Month to date cooling degree days 0  
Year to date cooling degree days 0  
Moisture  
Dew Point 36 °F    
Average Humidity 64    
Maximum Humidity 93    
Minimum Humidity 36    
Precipitation  
Precipitation 0.00 in 0.12 in 2.47 in (1983)
Month to date precipitation 2.51  
Year to date precipitation 2.51  
Sea Level Pressure  
Sea Level Pressure 29.75 in    
Wind  
Wind Speed 7 mph (SW)    
Max Wind Speed 22 mph    
Max Gust Speed 33 mph    
Visibility 10 miles    
Events Thunderstorm    
T = Trace of Precipitation, MM = Missing Value Source: NWS Daily Summary

Daily Weather History Graph

Daily Weather History Graph

Search for Another Location

Airport or City:

Trip Planner

Search our weather history database for the weather conditions in past years. The results will help you decide how hot, cold, wet, or windy it might be!

Date:

Astronomy

Jan. 21, 2014 Rise Set
Actual Time 7:22 AM EST 5:42 PM EST
Civil Twilight 6:55 AM EST 6:09 PM EST
Nautical Twilight 6:25 AM EST 6:39 PM EST
Astronomical Twilight 5:56 AM EST 7:08 PM EST
Moon 10:54 PM EST (1/21) 10:09 AM EST (1/21)
Length of Visible Light 11h 13m
Length of Day
10h 20m
Waning Gibbous, 75% of the Moon is Illuminated
Jan 21
Waning Gibbous
Jan 24
Last Quarter
Jan 30
New
Feb 6
First Quarter
Feb 14
Full

Hourly Weather History & Observations

Time (EST) Temp. Windchill Dew Point Humidity Pressure Visibility Wind Dir Wind Speed Gust Speed Precip Events Conditions
12:15 AM 42.8 °F 41.1 °F 35.6 °F 76% 29.90 in 10.0 mi SSW 3.5 mph - N/A   Clear
12:35 AM 44.6 °F 43.1 °F 35.6 °F 71% 29.89 in 10.0 mi SSW 3.5 mph - N/A   Clear
12:55 AM 44.6 °F 43.1 °F 35.6 °F 71% 29.89 in 10.0 mi SSW 3.5 mph - N/A   Clear
1:15 AM 42.8 °F 41.1 °F 33.8 °F 70% 29.89 in 10.0 mi SSW 3.5 mph - N/A   Clear
1:35 AM 41.0 °F 38.0 °F 35.6 °F 81% 29.89 in 10.0 mi SSW 4.6 mph - N/A   Clear
1:55 AM 41.0 °F 39.0 °F 35.6 °F 81% 29.88 in 10.0 mi SSW 3.5 mph - N/A   Clear
2:15 AM 39.2 °F 37.0 °F 35.6 °F 87% 29.88 in 10.0 mi SSW 3.5 mph - N/A   Clear
2:35 AM 39.2 °F 35.9 °F 35.6 °F 87% 29.87 in 10.0 mi South 4.6 mph - N/A   Clear
2:55 AM 41.0 °F 38.0 °F 35.6 °F 81% 29.87 in 10.0 mi South 4.6 mph - N/A   Clear
3:15 AM 41.0 °F 38.0 °F 35.6 °F 81% 29.86 in 10.0 mi South 4.6 mph - N/A   Clear
3:35 AM 37.4 °F - 35.6 °F 93% 29.86 in 10.0 mi Calm Calm - N/A   Clear
3:55 AM 37.4 °F 34.9 °F 33.8 °F 87% 29.86 in 10.0 mi SSW 3.5 mph - N/A   Clear
4:15 AM 35.6 °F 32.8 °F 33.8 °F 93% 29.85 in 10.0 mi SSW 3.5 mph - N/A   Clear
4:35 AM 35.6 °F 32.8 °F 33.8 °F 93% 29.84 in 10.0 mi SSW 3.5 mph - N/A   Clear
4:55 AM 37.4 °F - 33.8 °F 87% 29.83 in 10.0 mi Calm Calm - N/A   Clear
5:15 AM 35.6 °F 32.8 °F 33.8 °F 93% 29.83 in 10.0 mi South 3.5 mph - N/A   Clear
5:35 AM 35.6 °F 31.7 °F 33.8 °F 93% 29.83 in 10.0 mi SSW 4.6 mph - N/A   Clear
5:55 AM 39.2 °F 37.0 °F 33.8 °F 81% 29.82 in 10.0 mi South 3.5 mph - N/A   Clear
6:15 AM 41.0 °F 38.0 °F 33.8 °F 76% 29.82 in 10.0 mi South 4.6 mph - N/A   Clear
6:35 AM 41.0 °F 38.0 °F 35.6 °F 81% 29.81 in 10.0 mi South 4.6 mph - N/A   Clear
6:55 AM 41.0 °F 38.0 °F 35.6 °F 81% 29.81 in 10.0 mi SSW 4.6 mph - N/A   Clear
7:15 AM 37.4 °F 34.9 °F 35.6 °F 93% 29.81 in 10.0 mi SSW 3.5 mph - N/A   Clear
7:35 AM 41.0 °F 39.0 °F 37.4 °F 87% 29.80 in 10.0 mi SSW 3.5 mph - N/A   Clear
7:55 AM 41.0 °F 38.0 °F 37.4 °F 87% 29.80 in 10.0 mi South 4.6 mph - N/A   Clear
8:15 AM 41.0 °F 39.0 °F 37.4 °F 87% 29.80 in 10.0 mi South 3.5 mph - N/A   Clear
8:35 AM 42.8 °F 39.3 °F 41.0 °F 93% 29.79 in 10.0 mi SSW 5.8 mph - N/A   Clear
8:55 AM 46.4 °F 43.5 °F 41.0 °F 81% 29.78 in 10.0 mi SSW 5.8 mph - N/A   Clear
9:15 AM 48.2 °F - 42.8 °F 82% 29.78 in 10.0 mi SSW 4.6 mph - N/A   Clear
9:35 AM 50.0 °F - 42.8 °F 76% 29.76 in 10.0 mi SSW 5.8 mph - N/A   Clear
9:55 AM 51.8 °F - 42.8 °F 71% 29.76 in 10.0 mi SSW 5.8 mph - N/A   Clear
10:15 AM 53.6 °F - 42.8 °F 67% 29.76 in 10.0 mi SW 5.8 mph - N/A   Clear
10:35 AM 57.2 °F - 41.0 °F 55% 29.74 in 10.0 mi SSW 6.9 mph - N/A   Clear
10:55 AM 59.0 °F - 41.0 °F 51% 29.73 in 10.0 mi SSW 5.8 mph - N/A   Clear
11:15 AM 60.8 °F - 41.0 °F 48% 29.72 in 10.0 mi SW 5.8 mph - N/A   Clear
11:35 AM 62.6 °F - 41.0 °F 45% 29.70 in 10.0 mi SW 6.9 mph - N/A   Clear
11:55 AM 62.6 °F - 41.0 °F 45% 29.68 in 10.0 mi WSW 10.4 mph 17.3 mph N/A   Clear
12:55 PM 64.4 °F - 44.6 °F 49% 29.62 in 10.0 mi SW 9.2 mph - N/A   Clear
1:15 PM 66.2 °F - 46.4 °F 49% 29.60 in 10.0 mi SW 5.8 mph 18.4 mph N/A   Clear
1:35 PM 66.2 °F - 46.4 °F 49% 29.58 in 10.0 mi SSW 12.7 mph 21.9 mph N/A   Scattered Clouds
1:55 PM 64.4 °F - 48.2 °F 56% 29.57 in 10.0 mi SSW 4.6 mph 18.4 mph N/A   Mostly Cloudy
2:15 PM 64.4 °F - 48.2 °F 56% 29.56 in 10.0 mi SSW 12.7 mph 20.7 mph N/A   Overcast
2:35 PM 62.6 °F - 50.0 °F 63% 29.56 in 10.0 mi SSW 8.1 mph - N/A   Overcast
2:55 PM 62.6 °F - 51.8 °F 68% 29.55 in 10.0 mi WSW 8.1 mph - N/A   Overcast
3:15 PM 62.6 °F - 50.0 °F 63% 29.55 in 10.0 mi WSW 9.2 mph 17.3 mph N/A   Mostly Cloudy
3:35 PM 62.6 °F - 46.4 °F 55% 29.56 in 10.0 mi West 17.3 mph 26.5 mph N/A   Overcast
3:55 PM 64.4 °F - 42.8 °F 45% 29.57 in 10.0 mi West 17.3 mph 27.6 mph N/A   Scattered Clouds
4:15 PM 62.6 °F - 39.2 °F 42% 29.57 in 10.0 mi West 17.3 mph 27.6 mph N/A Thunderstorm Clear
4:55 PM 60.8 °F - 35.6 °F 39% 29.59 in 10.0 mi West 11.5 mph 25.3 mph N/A   Mostly Cloudy
5:15 PM 59.0 °F - 32.0 °F 36% 29.62 in 10.0 mi West 16.1 mph 29.9 mph N/A   Mostly Cloudy
5:35 PM 55.4 °F - 30.2 °F 38% 29.64 in 10.0 mi West 16.1 mph 32.2 mph N/A   Scattered Clouds
5:55 PM 53.6 °F - 30.2 °F 41% 29.66 in 10.0 mi West 20.7 mph 29.9 mph N/A   Clear
6:15 PM 51.8 °F - 26.6 °F 38% 29.68 in 10.0 mi West 21.9 mph 33.4 mph N/A   Clear
6:35 PM 51.8 °F - 26.6 °F 38% 29.70 in 10.0 mi WNW 19.6 mph 25.3 mph N/A   Clear
6:55 PM 50.0 °F - 24.8 °F 37% 29.71 in 10.0 mi West 19.6 mph 27.6 mph N/A   Clear
7:15 PM 50.0 °F - 24.8 °F 37% 29.72 in 10.0 mi WNW 19.6 mph 29.9 mph N/A   Clear
7:35 PM 50.0 °F - 24.8 °F 37% 29.73 in 10.0 mi West 16.1 mph 25.3 mph N/A   Clear
7:55 PM 48.2 °F - 26.6 °F 43% 29.74 in 10.0 mi West 20.7 mph 26.5 mph N/A   Clear
8:15 PM 46.4 °F 40.4 °F 26.6 °F 46% 29.74 in 10.0 mi WNW 13.8 mph 24.2 mph N/A   Clear
8:35 PM 46.4 °F 41.1 °F 26.6 °F 46% 29.75 in 10.0 mi WNW 11.5 mph 18.4 mph N/A   Clear
8:55 PM 46.4 °F 39.5 °F 26.6 °F 46% 29.76 in 10.0 mi West 17.3 mph 26.5 mph N/A   Clear
9:15 PM 46.4 °F 40.4 °F 26.6 °F 46% 29.77 in 10.0 mi West 13.8 mph 23.0 mph N/A   Clear
9:35 PM 44.6 °F 37.8 °F 28.4 °F 53% 29.78 in 10.0 mi WNW 15.0 mph 20.7 mph N/A   Clear
9:55 PM 44.6 °F 38.1 °F 28.4 °F 53% 29.79 in 10.0 mi WNW 13.8 mph 23.0 mph N/A   Clear
10:15 PM 44.6 °F 38.1 °F 28.4 °F 53% 29.79 in 10.0 mi WNW 13.8 mph 19.6 mph N/A   Clear
10:35 PM 42.8 °F 37.0 °F 28.4 °F 57% 29.80 in 10.0 mi West 10.4 mph 17.3 mph N/A   Clear
10:55 PM 42.8 °F 37.5 °F 28.4 °F 57% 29.81 in 10.0 mi WNW 9.2 mph 17.3 mph N/A   Clear
11:15 PM 42.8 °F 38.0 °F 28.4 °F 57% 29.81 in 10.0 mi WNW 8.1 mph 17.3 mph N/A   Clear
11:35 PM 41.0 °F 35.8 °F 28.4 °F 61% 29.82 in 10.0 mi WNW 8.1 mph - N/A   Clear
11:55 PM 41.0 °F 34.3 °F 28.4 °F 61% 29.83 in 10.0 mi WNW 11.5 mph 16.1 mph N/A   Clear